www.pogodaiklimat.ru

Погода и климат >> Архив погоды >> Испания >> Ла-Корунья


АРХИВ ПОГОДЫ в Ла-Корунье

Время (UTC), дата Ветер
(напр.,м/с)
 
Видим.   Явления Облачность Т
(С)
Тd
(С)
f
(%)
Тe
(С)
Тes
(С)
Комфортность P
(гПа)
Po
(гПа)
Тmin
(С)
Tmax
(С)
R
(мм)
R24
(мм)
S
(см)
07 14.04 Ю 4 20 км н/о +16.0 +13.7 86 +15 +15 тепло 1015.8 1007.8
08 14.04 Ю 4 20 км н/о +16.4 +13.9 85 +16 +16 тепло 1015.7 1007.8
09 14.04 Ю 4 25 км 10/9 300 м
[Cu Sc As trans]
+17.2 +14.1 82 +17 +17 тепло 1016.4 1008.5
10 14.04 Ю 3 20 км н/о +19.0 +14.7 76 +21 +21 комфорт 1016.3 1008.4
11 14.04 Ю 5 20 км н/о +19.7 +14.9 74 +21 +21 комфорт 1016.0 1008.1
12 14.04 Ю 3 25 км 10/5 300 м
[Cu Sc As trans Cs]
+20.3 +14.9 71 +23 +26 комфорт 1015.8 1008.0
13 14.04 Ю 4 20 км н/о +20.2 +14.8 71 +23 +23 комфорт 1015.5 1007.7
14 14.04 Ю 3 19 км н/о +22.0 +14.9 64 +25 +25 комфорт 1014.8 1007.0
15 14.04 ЮЗ 5 20 км н/о +22.3 +14.4 61 +26 +26 жарко 1013.8 1006.0
16 14.04 Ю 4 20 км н/о +22.1 +14.5 62 +25 +25 комфорт 1013.0 1005.2
17 14.04 Ю 5 20 км н/о +20.8 +14.7 68 +24 +24 комфорт 1012.9 1005.1
18 14.04 ЮЗ 4 20 км н/о +19.7 +14.7 73 +22 +22 комфорт 1012.8 1005.0 +22.5
19 14.04 Ю 3 20 км н/о +18.9 +14.8 77 +20 +20 тепло 1013.1 1005.2
20 14.04 ЮВ 3 20 км н/о +18.3 +15.0 81 +19 +19 тепло 1013.2 1005.3
21 14.04 ЮВ 3 15 км 10/5 600 м
[Cu Sc As trans]
+17.9 +14.6 81 +18 +18 тепло 1013.0 1005.1
22 14.04 ЮВ 2 20 км н/о +17.9 +14.6 81 +19 +19 тепло 1012.6 1004.7
23 14.04 Ю 4 20 км н/о +18.1 +14.2 78 +18 +18 тепло 1011.9 1004.0
00 15.04 Ю 3 15 км 10/8 1000 м
[Cu Sc As trans]
+18.1 +14.0 77 +19 +19 тепло 1011.2 1003.3
01 15.04 Ю 4 20 км н/о +18.1 +14.4 79 +18 +18 тепло 1010.2 1002.3
02 15.04 Ю 3 20 км н/о +17.9 +14.4 80 +18 +18 тепло 1009.1 1001.2
03 15.04 Ю 2 2000 м слаб. морось {дождь} 9/9 300 м
[Frnb]
+17.0 +15.0 88 +17 +17 тепло 1008.4 1000.5 0.8
04 15.04 ЮЗ 3 20 км в посл. час морось н/о +16.5 +13.4 82 +16 +16 тепло 1008.0 1000.1 0.0
05 15.04 Ю 4 20 км слаб. морось н/о +16.4 +13.1 81 +16 +16 тепло 1007.3 999.4 0.0
06 15.04 Ю 4 25 км слаб. морось {дождь} 10/8 600 м
[Cu Sc Ac As]
+16.3 +12.6 79 +16 +16 тепло 1007.2 999.3 +16.3 0.0
07 15.04 Ю 3 20 км в посл. час морось н/о +16.2 +12.7 80 +16 +16 тепло 1007.3 999.4 0.0
08 15.04 З 4 18 км слаб. дождь н/о +15.8 +13.1 84 +15 +15 тепло 1008.1 1000.2 0.6
09 15.04 ЮЗ 6 25 км {ливн. осадки, дождь} 9/9 600 м
[Cu Sc]
+14.8 +10.4 75 +13 +13 по сезону 1008.5 1000.6 0.6
10 15.04 ЮЗ 5 20 км слаб. дождь н/о +14.7 +10.5 76 +13 +13 по сезону 1009.8 1001.8 0.0
11 15.04 З 5 15 км слаб. дождь н/о +14.4 +11.2 81 +13 +13 по сезону 1010.5 1002.5 0.0
12 15.04 З 5 2000 м слаб. дождь 9/9 100 м
[Cu Sc]
+13.5 +11.7 89 +11 +12 прохладно 1010.9 1002.9 0.4
13 15.04 З 7 19 км в посл. час дождь н/о +13.7 +11.4 86 +11 +11 по сезону 1011.7 1003.7 0.0
14 15.04 З 7 18 км н/о +14.6 +11.0 79 +13 +13 по сезону 1012.5 1004.5
15 15.04 З 6 20 км н/о +14.7 +10.1 74 +13 +13 по сезону 1013.2 1005.2 0.2
16 15.04 З 4 20 км н/о +14.6 +9.4 71 +13 +13 тепло 1014.1 1006.1
17 15.04 З 4 19 км н/о +14.4 +9.4 72 +13 +13 по сезону 1014.9 1006.9
18 15.04 З 4 20 км дымка н/о +13.9 +8.9 72 +12 +12 по сезону 1015.2 1007.2 +16.5
19 15.04 З 4 20 км н/о +13.5 +9.9 79 +12 +12 тепло 1016.0 1008.0
20 15.04 ЮЗ 3 20 км н/о +13.2 +7.6 69 +12 +12 тепло 1017.2 1009.1
21 15.04 Ю 2 15 км 1/1 600 м
[Cu hum]
+12.6 +7.7 72 +12 +12 по сезону 1017.7 1009.6
22 15.04 ЮВ 2 20 км н/о +11.9 +7.8 76 +11 +11 тепло 1017.9 1009.8
23 15.04 Ю 2 20 км н/о +11.5 +7.8 78 +11 +11 тепло 1018.2 1010.1
00 16.04 Ю 2 15 км 1/1 600 м
[Cu hum Ac trans]
+11.5 +8.4 81 +10 +10 по сезону 1018.4 1010.3
01 16.04 ЮВ 2 20 км н/о +11.1 +8.1 82 +10 +10 тепло 1017.9 1009.8
02 16.04 ЮВ 2 20 км н/о +10.5 +7.9 84 +10 +10 по сезону 1017.6 1009.5
03 16.04 ЮВ 2 15 км 1/1 600 м
[Cu hum]
+10.1 +7.5 84 +9 +9 по сезону 1017.6 1009.4
04 16.04 ЮВ 3 20 км н/о +10.0 +7.4 84 +8 +8 тепло 1017.4 1009.2
05 16.04 ЮВ 4 20 км н/о +10.3 +7.4 82 +8 +8 по сезону 1017.0 1008.9
06 16.04 Ю 4 25 км 6/1 600 м
[Cu hum As trans Ci fib]
+10.7 +7.0 78 +8 +8 по сезону 1017.0 1008.9 +9.8
07 16.04 ЮВ 3 20 км н/о +10.9 +6.8 76 +9 +9 по сезону 1017.2 1009.1
08 16.04 ЮВ 4 20 км н/о +12.2 +6.9 70 +10 +10 по сезону 1017.2 1009.1
09 16.04 ЮВ 4 25 км 9/0
[Ac As Cs]
+14.0 +7.5 65 +13 +16 по сезону 1017.0 1009.0
10 16.04 Ю 4 20 км н/о +16.4 +7.1 54 +16 +16 тепло 1016.6 1008.6
11 16.04 ЮЗ 3 20 км н/о +17.2 +7.5 53 +17 +17 тепло 1016.1 1008.2
12 16.04 Ю 4 25 км 9/1 600 м
[Sc diur, vesp Cs]
+18.3 +6.8 47 +18 +27 тепло 1015.6 1007.7
13 16.04 ЮВ 2 20 км н/о +19.1 +7.8 48 +20 +20 тепло 1014.9 1007.0
14 16.04 ЮВ 4 20 км н/о +19.3 +6.4 43 +20 +20 тепло 1014.3 1006.4
15 16.04 С 3 20 км н/о +16.4 +9.6 64 +16 +16 тепло 1013.6 1005.7
16 16.04 СЗ 3 20 км н/о +16.4 +9.3 63 +16 +16 тепло 1012.7 1004.8
17 16.04 С 2 20 км н/о +16.8 +9.5 62 +17 +17 тепло 1012.3 1004.4
18 16.04 С 3 20 км н/о +16.3 +9.5 64 +16 +16 тепло 1012.0 1004.1 +19.8
19 16.04 СЗ 1 20 км н/о +16.0 +8.5 61 +17 +17 тепло 1011.3 1003.4
20 16.04 З 1 20 км н/о +15.6 +9.0 65 +16 +16 тепло 1011.3 1003.4
21 16.04 З 1 18 км 3/0
[Ci fib]
+14.5 +9.5 72 +15 +15 тепло 1011.1 1003.1
22 16.04 В 1 20 км н/о +14.4 +9.0 70 +15 +15 тепло 1010.7 1002.7
23 16.04 ЮВ 1 20 км н/о +13.9 +8.3 69 +14 +14 тепло 1009.9 1001.9
00 17.04 ЮВ 2 15 км 10/0
[Cs]
+13.9 +8.5 70 +14 +14 тепло 1008.6 1000.6
01 17.04 ЮВ 3 20 км н/о +13.3 +8.1 71 +12 +12 тепло 1007.4 999.4
02 17.04 ЮВ 3 20 км н/о +13.2 +8.1 71 +12 +12 тепло 1006.5 998.5
03 17.04 ЮВ 2 15 км 4/0
[As trans]
+12.9 +7.8 71 +13 +13 тепло 1005.4 997.4
04 17.04 Ю 2 20 км н/о +14.5 +6.8 60 +14 +14 тепло 1005.6 997.7
05 17.04 В 1 20 км н/о +14.4 +7.4 63 +15 +15 тепло 1005.8 997.9
06 17.04 СВ 1 25 км 10/1 600 м
[Sc Ac As]
+13.9 +7.6 66 +15 +15 тепло 1006.3 998.3 +12.8
07 17.04 Ю 3 20 км н/о +14.6 +5.9 56 +14 +14 тепло 1006.2 998.3
08 17.04 Ю 2 20 км н/о +14.5 +6.3 58 +15 +15 тепло 1006.4 998.5
09 17.04 Ю 2 25 км 10/1 600 м
[Sc Ac As]
+14.5 +6.8 60 +15 +17 тепло 1006.4 998.5
10 17.04 Ю 4 20 км н/о +15.6 +7.4 58 +15 +15 тепло 1006.4 998.5
11 17.04 ЮВ 2 20 км н/о +16.0 +8.0 59 +16 +16 тепло 1006.1 998.2
12 17.04 Ю 2 25 км 10/8 600 м
[Sc As op]
+17.7 +7.7 52 +18 +19 тепло 1005.5 997.7
13 17.04 Ю 4 20 км н/о +18.4 +7.8 50 +19 +19 тепло 1005.3 997.5
14 17.04 ЮЗ 5 20 км н/о +17.6 +9.2 58 +17 +17 тепло 1005.7 997.9
15 17.04 ЮЗ 6 20 км слаб. дождь н/о +16.1 +10.6 70 +15 +15 тепло 1006.1 998.2 0.0
16 17.04 ЮЗ 3 19 км слаб. дождь н/о +15.3 +11.1 76 +15 +15 тепло 1006.2 998.3 0.0
17 17.04 ЮЗ 3 12 км дождь н/о +15.0 +11.2 78 +14 +14 тепло 1006.6 998.7 0.4
18 17.04 ЮВ 2 9000 м дождь н/о +14.5 +11.5 82 +14 +14 по сезону 1007.3 999.4 +18.7 1
19 17.04 В 2 7000 м дождь н/о +13.7 +11.7 88 +13 +13 тепло 1008.0 1000.0 1
20 17.04 В 2 15 км слаб. дождь н/о +13.1 +11.8 92 +13 +13 тепло 1008.5 1000.5 1
21 17.04 В 3 15 км слаб. дождь 10/10 300 м
[Frnb]
+12.9 +12.0 94 +12 +12 по сезону 1009.1 1001.1 3
22 17.04 ЮВ 2 8000 м дождь н/о +12.8 +11.9 94 +12 +12 тепло 1009.4 1001.4 0.6
23 17.04 ЮВ 3 8000 м дождь н/о +12.7 +11.6 93 +11 +11 тепло 1009.7 1001.7 1
00 18.04 ЮВ 3 15 км слаб. дождь 10/10 300 м
[Frnb]
+12.6 +11.5 93 +11 +11 по сезону 1009.8 1001.8 3
01 18.04 ЮВ 3 20 км н/о +12.5 +11.1 91 +11 +11 тепло 1010.0 1002.0
02 18.04 ЮВ 3 16 км слаб. дождь н/о +12.5 +11.1 91 +11 +11 тепло 1009.7 1001.7 0.0
03 18.04 ЮВ 3 15 км слаб. дождь 10/10 300 м
[Sc]
+12.4 +10.8 90 +11 +11 по сезону 1009.9 1001.9 0.2
04 18.04 ЮВ 2 20 км н/о +12.2 +10.3 88 +11 +11 тепло 1009.8 1001.8
05 18.04 В 1 20 км слаб. дождь н/о +11.9 +10.1 89 +12 +12 тепло 1010.4 1002.4 0.0
06 18.04 ЮВ 3 25 км {дождь} 5/3 600 м
[Sc Ac lent Cc]
+11.7 +9.9 89 +10 +10 по сезону 1011.3 1003.2 +11.6 0.0
07 18.04 В 1 20 км н/о +13.2 +10.9 86 +14 +14 тепло 1012.1 1004.1
08 18.04 В 2 20 км н/о +15.3 +11.3 77 +15 +15 тепло 1012.7 1004.7
09 18.04 СВ 3 25 км 3/1 300 м
[Cu hum Ac lent Ci fib]
+15.7 +10.9 73 +15 +21 тепло 1013.2 1005.2
10 18.04 СВ 2 20 км н/о +15.9 +10.4 70 +16 +16 тепло 1013.7 1005.7
11 18.04 С 3 20 км н/о +15.3 +10.3 72 +15 +15 тепло 1014.1 1006.1
12 18.04 С 3 25 км 9/8 300 м
[Sc Ac lent]
+15.1 +10.7 75 +14 +16 по сезону 1014.5 1006.5
13 18.04 С 3 20 км н/о +14.7 +10.9 78 +14 +14 тепло 1014.6 1006.6
14 18.04 С 4 20 км н/о +15.6 +11.2 75 +15 +15 тепло 1014.8 1006.8
15 18.04 С 4 20 км н/о +15.7 +10.5 71 +15 +15 тепло 1014.5 1006.5
16 18.04 С 6 20 км н/о +15.0 +10.4 74 +13 +13 тепло 1014.6 1006.6 0.2
17 18.04 С 4 20 км н/о +14.8 +10.8 77 +14 +14 тепло 1015.0 1007.0
18 18.04 С 6 20 км дымка н/о +14.6 +11.9 84 +13 +13 по сезону 1015.4 1007.4 +16.9 0.2
19 18.04 СВ 3 19 км н/о +14.6 +11.7 83 +14 +14 тепло 1016.1 1008.1
20 18.04 С 4 17 км н/о +14.2 +11.7 85 +13 +13 тепло 1017.1 1009.1
21 18.04 СВ 3 15 км 10/1 600 м
[Sc Ac As]
+14.3 +10.1 76 +13 +13 по сезону 1017.8 1009.8
22 18.04 СВ 4 20 км н/о +13.8 +10.0 78 +12 +12 тепло 1018.1 1010.1
23 18.04 СВ 4 20 км н/о +13.4 +10.2 81 +12 +12 тепло 1018.2 1010.1
00 19.04 С 3 15 км 8/1 300 м
[Sc Ac As]
+13.4 +10.6 83 +12 +12 по сезону 1018.4 1010.3
01 19.04 СВ 4 18 км н/о +13.0 +11.7 92 +11 +11 тепло 1018.1 1010.0
02 19.04 СВ 4 18 км н/о +12.5 +11.7 95 +10 +10 по сезону 1017.8 1009.7
03 19.04 С 4 15 км 10/8 200 м
[Sc Ac As]
+12.9 +11.8 93 +11 +11 по сезону 1017.6 1009.5
04 19.04 С 6 15 км н/о +13.0 +11.9 93 +11 +11 тепло 1017.9 1009.8
05 19.04 С 6 13 км слаб. морось н/о +13.0 +12.1 94 +10 +10 тепло 1017.7 1009.6 0.0
06 19.04 С 6 15 км слаб. дождь 10/8 200 м
[Cu Sc Ac As]
+13.0 +11.9 93 +10 +10 по сезону 1018.2 1010.1 +12.5 0.0
07 19.04 С 6 12 км в посл. час дождь н/о +13.0 +12.1 94 +11 +11 тепло 1018.8 1010.7 0.0
08 19.04 СВ 5 13 км н/о +13.1 +12.0 93 +11 +11 по сезону 1019.2 1011.1
09 19.04 СВ 4 10 км {дождь} 10/9 200 м
[Cu Sc Ac As]
+13.5 +12.4 93 +12 +12 по сезону 1019.2 1011.1 0.0
10 19.04 СВ 5 19 км н/о +14.4 +12.8 90 +13 +13 по сезону 1019.5 1011.5
11 19.04 СВ 3 20 км н/о +15.4 +12.7 84 +15 +15 тепло 1019.4 1011.4
12 19.04 СВ 5 25 км {дождь} 9/3 300 м
[Cu Sc Ac As Ci sp]
+16.5 +12.1 75 +16 +19 тепло 1019.5 1011.5
13 19.04 СВ 4 20 км н/о +18.1 +12.3 69 +18 +18 тепло 1019.6 1011.7
14 19.04 СЗ 3 19 км н/о +16.8 +13.1 79 +17 +17 тепло 1019.9 1011.9
15 19.04 С 6 18 км н/о +16.6 +12.9 79 +15 +15 тепло 1020.0 1012.0
16 19.04 С 3 19 км н/о +16.8 +12.7 77 +17 +17 тепло 1020.3 1012.3
17 19.04 СВ 7 20 км н/о +17.3 +11.1 67 +16 +16 тепло 1020.4 1012.4
18 19.04 СВ 6 20 км дымка н/о +17.3 +10.9 66 +17 +17 тепло 1020.8 1012.8 +18.6
19 19.04 С 4 19 км н/о +15.5 +11.9 79 +15 +15 тепло 1021.6 1013.6
20 19.04 СВ 5 20 км н/о +16.0 +10.3 69 +15 +15 тепло 1022.6 1014.6
21 19.04 В 5 18 км ясно +15.4 +9.7 69 +14 +14 тепло 1023.4 1015.4
22 19.04 С 2 20 км н/о +15.2 +8.7 65 +15 +15 тепло 1024.2 1016.1
23 19.04 В 2 20 км н/о +15.3 +7.6 60 +15 +15 тепло 1024.2 1016.1
00 20.04 СЗ 2 15 км ясно +14.8 +7.8 63 +15 +15 тепло 1024.3 1016.2
01 20.04 С 3 18 км н/о +13.8 +11.0 83 +13 +13 тепло 1024.0 1015.9
02 20.04 В 2 20 км н/о +13.5 +9.5 77 +13 +13 тепло 1023.3 1015.2
03 20.04 З 2 15 км ясно +12.7 +9.3 80 +12 +12 тепло 1023.1 1015.0
04 20.04 ЮВ 1 19 км н/о +12.4 +8.9 79 +13 +13 тепло 1022.7 1014.6
05 20.04 СЗ 1 18 км н/о +11.8 +8.8 82 +12 +12 тепло 1022.9 1014.8
06 20.04 В 4 22 км ясно +12.2 +7.7 74 +10 +10 по сезону 1023.0 1014.9 +11.8
07 20.04 СВ 3 20 км н/о +13.0 +8.7 75 +12 +12 тепло 1023.3 1015.2
08 20.04 СВ 2 19 км н/о +14.7 +9.3 70 +14 +14 тепло 1023.3 1015.2
09 20.04 СВ 4 25 км 1/0
[Ci fib]
+16.2 +9.4 64 +15 +20 тепло 1023.1 1015.1
10 20.04 СЗ 3 20 км н/о +16.9 +11.4 70 +17 +17 тепло 1023.1 1015.1
11 20.04 С 4 19 км н/о +18.6 +11.4 63 +19 +19 тепло 1022.6 1014.7
12 20.04 С 5 20 км 1/0
[Ci fib]
+17.0 +12.1 73 +16 +24 тепло 1021.9 1013.9
13 20.04 С 4 19 км н/о +16.0 +12.0 77 +15 +15 тепло 1021.3 1013.3
14 20.04 С 5 19 км н/о +16.0 +12.2 78 +15 +15 тепло 1020.9 1012.9
15 20.04 С 6 19 км н/о +15.3 +11.7 79 +14 +14 по сезону 1020.6 1012.6
16 20.04 С 6 16 км н/о +14.9 +12.2 84 +13 +13 тепло 1020.3 1012.3
17 20.04 С 5 17 км н/о +15.0 +11.9 82 +14 +14 тепло 1020.2 1012.2
18 20.04 С 4 12 км н/о +14.5 +12.7 89 +13 +13 по сезону 1020.3 1012.3 +18.7
19 20.04 С 5 7000 м н/о +14.0 +12.9 93 +12 +12 тепло 1020.6 1012.5
20 20.04 С 4 н/о н/о +13.7 +12.9 95 +12 +12 по сезону 1020.9 1012.8
21 20.04 С 3 1500 м туман на расстоянии 1/1 100 м
[St]
+13.5 +12.7 95 +12 +12 по сезону 1021.2 1013.1
22 20.04 С 2 7000 м н/о +13.5 +12.1 91 +13 +13 тепло 1021.0 1012.9
23 20.04 СВ 3 9000 м н/о +13.4 +11.6 89 +12 +12 тепло 1020.4 1012.3
00 21.04 СВ 2 15 км {туман} ясно +13.3 +11.4 88 +13 +13 тепло 1020.0 1011.9
01 21.04 СВ 1 9000 м н/о +12.8 +11.0 89 +13 +13 тепло 1019.5 1011.4
02 21.04 СВ 3 10 км н/о +12.6 +10.5 87 +11 +11 тепло 1018.8 1010.7
03 21.04 С 2 15 км ясно +12.2 +10.4 89 +12 +12 тепло 1018.5 1010.4
04 21.04 З 2 6000 м н/о +12.0 +10.6 91 +11 +11 тепло 1018.1 1010.0
05 21.04 З 2 6000 м н/о +11.8 +10.7 93 +11 +11 тепло 1018.1 1010.0
06 21.04 штиль 0 3000 м дымка 1/0
[Ci fib]
+11.4 +10.3 93 +11 +11 по сезону 1018.0 1009.9 +11.4
07 21.04 ЮВ 1 10 км н/о +12.5 +10.9 90 +13 +13 тепло 1017.8 1009.7

 

Местоположение метеостанции Ла-Корунья (Испания): широта 43.37 долгота -8.42 высота над уровнем моря 67 м.

В архиве по умолчанию представлена погода в Ла-Корунье за последнюю неделю. Архивные данные за месяц целиком и за предыдущие месяцы, начиная с января 2011 года, Вы можете получить, выбрав интересующий диапазон дат из раскрывающегося списка и нажав кнопку "Ввод!".


*Определитесь, кто Вы:
робот инопланетянин человек

Внимание! Время в таблицах - всемирное. Для получения местного времени необходимо прибавить поправку, которая равна 1 ч.

Смотрите также архив погоды в соседних городах и на ближайших метеорологических станциях:

Погода в Сантьяго (Испания) (52 км)
Погода в Сантьяго-де-Компостеле (Испания) (56 км)
Погода на Кабо Вилан (Испания) (68 км)
Погода в Падроне (Испания) (72 км)
Погода в Эстака-де-Баресе (Испания) (76 км)
Погода в Луго (Испания) (83 км)
Погода в Фистерре (Испания) (87 км)
Погода в Понтеведре (Испания) (106 км)
Погода в Карбальино (Испания) (109 км)
Погода в Кастрополе (Испания) (114 км)

Пояснения к столбцам:

Ветер - указаны скорость ветра в м/с - средняя за 10 мин, порывы в срок и между сроками (в фигурных скобках) и направление, откуда дует ветер: С - северный, СВ - северо-восточный, В - восточный, ЮВ - юго-восточный, Ю - южный, ЮЗ - юго-западный, З - западный, СЗ - северо-западный.
Видимость - горизонтальная дальность видимости в метрах или километрах. При видимости от 1 до 10 км при отсутствии осадков обычно наблюдается дымка, при ухудшении видимости до 1 км и менее - туман. В сухую погоду видимость может ухудшаться дымом, пылью или мглою.
Явления - указаны атмосферные явления, наблюдавшиеся в срок или в последний час перед сроком; фигурными скобками обозначены явления, наблюдавшиеся между сроками (за 1-3 часа до срока); квадратными скобками обозначены град или гололедные отложения с указанием их диаметра в мм.
Облачность - указаны через наклонную черту общая и нижняя облачность в баллах и высота нижней границы облаков в метрах; квадратными скобками обозначены формы облаков: Ci - перистые, Cs - перисто-слоистые, Cc - перисто-кучевые, Ac - высококучевые, As - высокослоистые, Sc - слоисто-кучевые, Ns - слоисто-дождевые, Cu - кучевые, Cb - кучево-дождевые. Подробнее классификацию облаков см. в Атласе облаков (PDF).
T - Температура воздуха - температура, измеренная на высоте 2 м над землей.
Td - Температура точки росы - температура, при понижении до которой содержащийся в воздухе водяной пар достигнет насыщения.
f - Относительная влажность воздуха - влажноcть воздуха, измеренная на высоте 2 м над землей.
Te - Эффективная температура - температура, которую ощущает одетый по сезону человек в тени. Характеристика душности погоды. При расчете учитывается влияние влажности воздуха и скорости ветра на теплоощущения человека.
Tes - Эффективная температура на солнце - температура, которую ощущает человек, с поправкой на солнечный нагрев. Характеристика знойности погоды. Зависит от высоты солнца над горизонтом, облачности и скорости ветра. Ночью, в пасмурную погоду, а также при ветре 12 м/с и более поправка равна нулю.
P - Атмосферное давление - приведенное к уровню моря атмосферное давление.
Po - Атмосферное давление - измеренное на уровне метеостанции атмосферное давление.
Tmin - Минимальная температура - минимум температуры воздуха на высоте 2 м над землей.
Tmax - Максимальная температура - максимум температуры воздуха на высоте 2 м над землей.
R - Количество осадков - Количество выпавших осадков за период времени, мм. При наведении курсора мыши на число - период времени, за который выпало указанное количество осадков.
R24 - Количество осадков - Количество выпавших осадков за 24 часа, мм.
S - Снежный покров - Высота снежного покрова, см. При наведении курсора мыши на число - состояние снежного покрова и степень покрытия местности в баллах.